Tracking 31027 objects as of 19-Jul-2025
HD Live streaming from Space Station
objects crossing your sky now

MARCOPOLO 2 R/B(PAM-D)

Track MARCOPOLO 2 R/B(PAM-D) now!


NORAD ID: 20764
Int'l Code: 1990-074C
Perigee: 449.4 km
Apogee: 36,987.9 km
Inclination: 21.6 °
Period: 659.2 minutes
Semi major axis: 25089 km
RCS: 3.0298 m2 (large)
Launch date: August 18, 1990
Source: United States (US)
Launch site: AIR FORCE EASTERN TEST RANGE (AFETR)

Note: This is a ROCKET BODY
Your satellite tracking list
IRIDIUM 106
Track 1 satellite(s)




NASA's NSSDC Master Catalog

Two Line Element Set (TLE):
1 20764U 90074C   25198.93237762 -.00000158  00000-0  89908-4 0  9996
2 20764  21.6115   3.1923 7281574 254.6431  20.9343  2.18454371276487
Source of the keplerian elements: AFSPC